| time (UTC) | temp F | wind direction | speed MPH | gust MPH | rain 1hr in | rain 24hr in | rain mn in | humidity % | barometer mb |
| 20260507013041 | 56 | 293 | 2.0 | 6.0 | 0.00 | 0.00 | 0.00 | 64 | 992.6 |
| 20260507010040 | 58 | 293 | 3.0 | 6.0 | 0.00 | 0.00 | 0.00 | 60 | 992.4 |
| 20260507003101 | 59 | 293 | 2.0 | 4.0 | 0.00 | 0.00 | 0.00 | 58 | 992.4 |
| 20260507000101 | 61 | 293 | 3.0 | 6.0 | 0.00 | 0.00 | 0.00 | 56 | 992.3 |
| 20260506233041 | 62 | 293 | 2.0 | 4.0 | 0.00 | 0.00 | 0.00 | 54 | 992.2 |
| 20260506223041 | 64 | 293 | 2.0 | 4.0 | 0.00 | 0.00 | 0.00 | 50 | 992.1 |
| 20260506220040 | 65 | 293 | 2.0 | 4.0 | 0.00 | 0.00 | 0.00 | 51 | 992.1 |
| 20260506213121 | 65 | 270 | 2.0 | 6.0 | 0.00 | 0.00 | 0.00 | 51 | 992.1 |
| 20260506210413 | 64 | 293 | 1.0 | 4.0 | 0.00 | 0.00 | 0.00 | 51 | 992.1 |
| 20260506203041 | 65 | 293 | 1.0 | 4.0 | 0.00 | 0.00 | 0.00 | 51 | 992.1 |
| 20260506200041 | 64 | 0.0 | 3.0 | 0.00 | 0.00 | 0.00 | 52 | 992.0 | |
| 20260506193041 | 63 | 0.0 | 2.0 | 0.00 | 0.00 | 0.00 | 53 | 992.0 | |
| 20260506190413 | 63 | 0.0 | 2.0 | 0.00 | 0.00 | 0.00 | 54 | 992.0 | |
| 20260506183041 | 64 | 0.0 | 2.0 | 0.00 | 0.00 | 0.00 | 54 | 992.0 | |
| 20260506180041 | 64 | 0.0 | 0.0 | 0.00 | 0.00 | 0.00 | 54 | 991.9 | |
| 20260506173101 | 66 | 0.0 | 0.0 | 0.00 | 0.00 | 0.00 | 51 | 991.7 | |
| 20260506170041 | 69 | 0.0 | 0.0 | 0.00 | 0.00 | 0.00 | 47 | 991.6 | |
| 20260506163101 | 73 | 0.0 | 1.0 | 0.00 | 0.00 | 0.00 | 42 | 991.4 | |
| 20260506160041 | 77 | 315 | 1.0 | 4.0 | 0.00 | 0.00 | 0.00 | 38 | 991.2 |
| 20260506153041 | 78 | 315 | 3.0 | 7.0 | 0.00 | 0.00 | 0.00 | 34 | 991.1 |
| 20260506143121 | 78 | 293 | 1.0 | 4.0 | 0.00 | 0.00 | 0.00 | 35 | 991.3 |
| 20260506140041 | 79 | 0 | 1.0 | 5.0 | 0.00 | 0.00 | 0.00 | 30 | 991.3 |
| 20260506133040 | 80 | 315 | 2.0 | 7.0 | 0.00 | 0.00 | 0.00 | 30 | 991.3 |
| 20260506123101 | 80 | 315 | 4.0 | 10.0 | 0.00 | 0.00 | 0.00 | 30 | 991.6 |
| 20260506120041 | 80 | 315 | 4.0 | 10.0 | 0.00 | 0.00 | 0.00 | 29 | 991.8 |
| 20260506113041 | 79 | 0 | 4.0 | 9.0 | 0.00 | 0.00 | 0.00 | 29 | 992.0 |
| 20260506110040 | 80 | 315 | 4.0 | 12.0 | 0.00 | 0.00 | 0.00 | 28 | 992.1 |
| 20260506103044 | 79 | 293 | 4.0 | 12.0 | 0.00 | 0.00 | 0.00 | 29 | 992.3 |
| 20260506093102 | 78 | 293 | 4.0 | 9.0 | 0.00 | 0.00 | 0.00 | 32 | 992.6 |
| 20260506090042 | 78 | 293 | 3.0 | 11.0 | 0.00 | 0.00 | 0.00 | 30 | 992.8 |
| 20260506083414 | 77 | 293 | 3.0 | 9.0 | 0.00 | 0.00 | 0.00 | 34 | 992.9 |
| 20260506080413 | 77 | 248 | 2.0 | 6.0 | 0.00 | 0.00 | 0.00 | 33 | 993.1 |
| 20260506060106 | 69 | 293 | 3.0 | 10.0 | 0.00 | 0.00 | 0.00 | 43 | 993.4 |
| 20260506050416 | 63 | 293 | 3.0 | 8.0 | 0.00 | 0.00 | 0.00 | 47 | 993.8 |
| 20260506043041 | 62 | 270 | 3.0 | 9.0 | 0.00 | 0.00 | 0.00 | 47 | 993.8 |
| 20260506040041 | 60 | 293 | 2.0 | 8.0 | 0.00 | 0.00 | 0.00 | 46 | 993.8 |
| 20260506033041 | 59 | 293 | 3.0 | 7.0 | 0.00 | 0.00 | 0.00 | 46 | 993.7 |
| 20260506030041 | 59 | 293 | 4.0 | 8.0 | 0.00 | 0.00 | 0.00 | 46 | 993.5 |
| 20260506023102 | 57 | 293 | 4.0 | 9.0 | 0.00 | 0.00 | 0.00 | 45 | 993.3 |
| 20260506020041 | 56 | 293 | 3.0 | 6.0 | 0.00 | 0.00 | 0.00 | 48 | 993.3 |